Overview Statistics Trail Chart Weather Telemetry Raw packets
 

This is the latest recevied weather packets stored in our database for station/object G4KVI. If no packets are shown the sender has not sent any weather packets the latest 10 day(s).

<< 20 21 22 23 24 25 26 >>
Time Temp. Humidity Pressure Rain* Wind** Luminosity Snow
1788455104 21.67° C 76% 1018.9 hPa 0 mm - 59 W/m² -
1788454804 21.67° C 75% 1019.1 hPa 0 mm - 65 W/m² -
1788454504 21.67° C 74% 1019 hPa 0 mm - 34 W/m² -
1788454204 22.22° C 73% 1019.1 hPa 0 mm - 63 W/m² -
1788453904 22.22° C 72% 1019 hPa 0 mm - 119 W/m² -
1788453604 22.78° C 70% 1018.8 hPa 0 mm - 98 W/m² -
1788453304 22.78° C 71% 1018.8 hPa 0 mm - 283 W/m² -
1788453004 22.78° C 70% 1019 hPa 0 mm - 142 W/m² -
1788452704 22.78° C 70% 1019.1 hPa 0 mm - 105 W/m² -
1788452404 22.78° C 69% 1018.8 hPa 0 mm - 75 W/m² -
1788452104 23.33° C 68% 1019.2 hPa 0 mm - 141 W/m² -
1788451804 22.78° C 69% 1019.1 hPa 0 mm - 335 W/m² -
1788451504 22.78° C 69% 1019.3 hPa 0 mm - 233 W/m² -
1788451204 23.33° C 69% 1019.5 hPa 0 mm - 170 W/m² -
1788450904 23.33° C 68% 1019.3 hPa 0 mm - 440 W/m² -
1788450604 23.33° C 68% 1019.6 hPa 0 mm - 362 W/m² -
1788450304 22.78° C 71% 1019.2 hPa 0 mm - 461 W/m² -
1788450004 22.22° C 71% 1019.3 hPa 0 mm - 288 W/m² -
1788449704 22.22° C 71% 1019.5 hPa 0 mm - 140 W/m² -
1788449404 22.22° C 70% 1019.9 hPa 0 mm - 203 W/m² -
1788449104 22.22° C 71% 1019.7 hPa 0 mm - 136 W/m² -
1788448804 22.78° C 69% 1019.6 hPa 0 mm - 194 W/m² -
1788448504 23.33° C 68% 1019.9 hPa 0 mm - 262 W/m² -
1788448204 22.78° C 67% 1019.7 hPa 0 mm - 427 W/m² -
1788447904 23.33° C 66% 1019.8 hPa 0 mm - 171 W/m² -

* Rain latest hour (hover to see other rain measurements)
** Current wind speed in m/s (hover to see current wind gust speed)